Simultaneous Nadir Overpasses (SNOs) Predictions

Prediction of SNOs between GOES-16 and AQUA Satellite Orbit:

Table of predicted SNOs for the next 14.0 days since TLE Epoch: 7/26/2018
Index Date Time (GOES-16) GOES-16 Lat,Lon AQUA Lat,Lon Distance(km) Time Diff (sec)
1 07/27/2018 06:30:22 -0.03, -75.18 -0.26, -73.99 134.09 80
2 07/27/2018 18:51:47 0.04, -75.18 -0.83, -79.19 456.33 80
3 07/29/2018 06:18:15 -0.04, -75.20 -0.92, -71.06 470.59 80
4 07/29/2018 18:39:40 0.04, -75.20 -0.16, -76.26 119.61 80
5 07/31/2018 18:30:12 0.04, -75.23 0.44, -73.32 217.83 80
6 08/01/2018 06:51:29 -0.04, -75.24 0.66, -78.48 368.09 80
7 08/03/2018 06:39:22 -0.05, -75.28 -0.01, -75.55 30.15 80
8 08/05/2018 06:24:34 -0.05, -75.31 -0.61, -72.60 308.13 80
9 08/05/2018 18:45:59 0.05, -75.32 -0.46, -77.80 281.82 80
10 08/07/2018 18:36:31 0.06, -75.36 0.16, -74.86 56.54 80
11 08/09/2018 18:24:23 0.06, -75.40 0.78, -71.92 395.16 80




NCC Satellite Simultaneous Nadir Overpasses (SNOs) Prediction Service
